Weather History for Gulfport, MS

Change the Weather History Date:

Tuesday, March 19, 2013

  Actual Average Record
Temperature  
Mean Temperature 64 °F -  
Max Temperature 73 °F 71 °F 83 °F (1977)
Min Temperature 55 °F 53 °F 35 °F (1949)
Degree Days  
Heating Degree Days 1    
Growing Degree Days 14 (Base 50)    
Moisture  
Dew Point 54 °F    
Average Humidity 72    
Maximum Humidity 94    
Minimum Humidity 38    
Precipitation  
Precipitation 0.02 in - - ()
Sea Level Pressure  
Sea Level Pressure 29.97 in    
Wind  
Wind Speed 8 mph (NE)    
Max Wind Speed 14 mph    
Max Gust Speed 24 mph    
Visibility 9 miles    
Events Rain    
Averages and records for this station are not official NWS values.
T = Trace of Precipitation, MM = Missing Value Source: NWS Daily Summary

Daily Weather History Graph

Daily Weather History Graph

Search for Another Location

Airport:

Trip Planner

Search our weather history database for the weather conditions in past years. The results will help you decide how hot, cold, wet, or windy it might be!

Date:

Astronomy

Mar. 19, 2013 Rise Set
Actual Time 7:00 AM CDT 7:07 PM CDT
Civil Twilight 6:37 AM CDT 7:31 PM CDT
Nautical Twilight 6:09 AM CDT 7:59 PM CDT
Astronomical Twilight 5:41 AM CDT 8:27 PM CDT
Moon 12:13 PM CDT 1:31 AM CDT
Length of Visible Light 12h 54m
Length of Day
12h 06m
Waxing Crescent, 50% of the Moon is Illuminated
Mar 19
Waxing Crescent
Mar 19
First Quarter
Mar 27
Full
Apr 2
Last Quarter
Apr 10
New

Hourly Weather History & Observations

Time (CDT) Temp. Dew Point Humidity Pressure Visibility Wind Dir Wind Speed Gust Speed Precip Events Conditions
12:53 AM 68.0 °F 66.0 °F 93% 29.89 in 3.0 mi WNW 4.6 mph - N/A   Overcast
1:45 AM 64.4 °F 62.6 °F 94% 29.92 in 2.0 mi NNE 10.4 mph 24.2 mph 0.01 in Rain Rain
1:53 AM 63.0 °F 61.0 °F 93% 29.92 in 3.0 mi NNE 8.1 mph - 0.02 in Rain Light Rain
2:01 AM 62.6 °F 60.8 °F 94% 29.91 in 8.0 mi NNE 8.1 mph - 0.00 in Rain Light Rain
2:53 AM 63.0 °F 59.0 °F 87% 29.92 in 10.0 mi North 10.4 mph - 0.00 in   Overcast
3:00 AM 62.6 °F 57.2 °F 82% 29.92 in 10.0 mi North 10.4 mph 18.4 mph N/A   Overcast
3:53 AM 63.0 °F 57.0 °F 81% 29.94 in 10.0 mi North 12.7 mph - N/A   Overcast
4:25 AM 62.6 °F 57.2 °F 82% 29.94 in 10.0 mi North 12.7 mph 19.6 mph N/A   Overcast
4:53 AM 61.0 °F 55.9 °F 83% 29.95 in 10.0 mi North 11.5 mph 23.0 mph N/A   Overcast
5:53 AM 59.0 °F 54.0 °F 83% 29.97 in 10.0 mi North 13.8 mph - N/A   Scattered Clouds
6:53 AM 57.9 °F 52.0 °F 81% 29.99 in 10.0 mi NNE 11.5 mph 20.7 mph N/A   Mostly Cloudy
7:53 AM 55.9 °F 50.0 °F 80% 30.02 in 10.0 mi North 9.2 mph - N/A   Partly Cloudy
8:53 AM 57.9 °F 48.9 °F 72% 30.03 in 10.0 mi NNE 9.2 mph - N/A   Clear
9:53 AM 61.0 °F 48.0 °F 62% 30.03 in 10.0 mi NE 9.2 mph - N/A   Clear
10:53 AM 64.9 °F 46.0 °F 50% 30.03 in 10.0 mi NE 6.9 mph - N/A   Clear
11:53 AM 69.1 °F 46.0 °F 44% 30.03 in 10.0 mi NNE 9.2 mph - N/A   Clear
12:53 PM 73.4 °F 46.4 °F 38% 30.01 in 10.0 mi East 8.1 mph - N/A   Clear
1:53 PM 72.0 °F 53.1 °F 51% 30.00 in 10.0 mi SSE 10.4 mph - N/A   Clear
2:53 PM 72.0 °F 48.9 °F 44% 29.99 in 10.0 mi SE 8.1 mph - N/A   Mostly Cloudy
3:53 PM 73.9 °F 52.0 °F 46% 29.95 in 10.0 mi SE 8.1 mph - N/A   Partly Cloudy
4:53 PM 73.0 °F 54.0 °F 51% 29.95 in 10.0 mi SE 11.5 mph - N/A   Partly Cloudy
5:53 PM 71.1 °F 57.0 °F 61% 29.94 in 10.0 mi SE 9.2 mph - N/A   Clear
6:53 PM 68.0 °F 57.0 °F 68% 29.96 in 10.0 mi South 5.8 mph - N/A   Mostly Cloudy
7:53 PM 64.9 °F 57.9 °F 78% 29.98 in 10.0 mi Calm Calm - N/A   Clear
8:53 PM 60.1 °F 55.9 °F 86% 29.99 in 10.0 mi Calm Calm - N/A   Clear
9:53 PM 60.1 °F 55.9 °F 86% 30.00 in 10.0 mi Calm Calm - N/A   Clear
10:53 PM 59.0 °F 55.9 °F 90% 30.01 in 10.0 mi Calm Calm - N/A   Clear
11:53 PM 60.1 °F 46.0 °F 60% 30.00 in 10.0 mi NNE 4.6 mph - N/A   Clear